| time (UTC) | temp F | wind direction | speed MPH | gust MPH | rain 1hr in | rain 24hr in | rain mn in | humidity % | barometer mb |
| 20260904065546 | 73 | 203 | 0.0 | 0.0 | 0.00 | 0.22 | 0.22 | 99 | 1011.2 |
| 20260904065043 | 73 | 205 | 0.0 | 0.0 | 0.00 | 0.22 | 0.22 | 99 | 1011.1 |
| 20260904064539 | 73 | 205 | 0.0 | 0.0 | 0.00 | 0.22 | 0.22 | 99 | 1010.9 |
| 20260904064038 | 73 | 205 | 0.0 | 0.0 | 0.00 | 0.22 | 0.22 | 99 | 1011.5 |
| 20260904063530 | 73 | 207 | 0.0 | 0.0 | 0.00 | 0.22 | 0.22 | 99 | 1011.2 |
| 20260904063029 | 73 | 206 | 0.0 | 0.0 | 0.00 | 0.22 | 0.22 | 99 | 1011.5 |
| 20260904062526 | 73 | 205 | 0.0 | 0.0 | 0.00 | 0.22 | 0.22 | 99 | 1011.6 |
| 20260904062021 | 73 | 205 | 0.0 | 0.0 | 0.00 | 0.22 | 0.22 | 99 | 1011.8 |
| 20260904061517 | 73 | 210 | 0.0 | 0.0 | 0.00 | 0.22 | 0.22 | 99 | 1011.2 |
| 20260904061013 | 73 | 189 | 0.0 | 0.0 | 0.00 | 0.22 | 0.22 | 99 | 1011.2 |
| 20260904060509 | 73 | 197 | 0.0 | 0.0 | 0.00 | 0.22 | 0.22 | 99 | 1011.5 |
| 20260904060005 | 73 | 215 | 0.0 | 0.0 | 0.00 | 0.22 | 0.22 | 99 | 1011.7 |
| 20260904055500 | 73 | 207 | 0.0 | 0.0 | 0.00 | 0.22 | 0.22 | 99 | 1011.3 |
| 20260904054955 | 73 | 202 | 0.0 | 0.0 | 0.00 | 0.22 | 0.22 | 99 | 1011.5 |
| 20260904054450 | 73 | 207 | 0.0 | 0.0 | 0.00 | 0.22 | 0.22 | 99 | 1012.0 |
| 20260904053946 | 73 | 204 | 0.0 | 0.0 | 0.00 | 0.22 | 0.22 | 99 | 1011.9 |
| 20260904053446 | 73 | 201 | 0.0 | 0.0 | 0.00 | 0.22 | 0.22 | 99 | 1011.9 |
| 20260904052942 | 73 | 216 | 0.0 | 0.0 | 0.00 | 0.22 | 0.22 | 99 | 1012.1 |
| 20260904052438 | 73 | 207 | 0.0 | 0.0 | 0.00 | 0.22 | 0.22 | 99 | 1012.0 |
| 20260904051933 | 73 | 205 | 0.0 | 0.0 | 0.00 | 0.22 | 0.22 | 99 | 1011.9 |
| 20260904051430 | 73 | 204 | 0.0 | 0.0 | 0.00 | 0.22 | 0.22 | 99 | 1012.1 |
| 20260904050929 | 73 | 200 | 0.0 | 0.0 | 0.31 | 0.22 | 0.22 | 99 | 1012.0 |
| 20260904050426 | 73 | 202 | 0.0 | 0.0 | 0.61 | 0.22 | 0.22 | 99 | 1012.3 |
| 20260904045925 | 73 | 196 | 0.0 | 0.0 | 0.83 | 0.16 | 0.16 | 99 | 1012.3 |
| 20260904045421 | 73 | 199 | 0.0 | 0.0 | 0.47 | 0.08 | 0.08 | 99 | 1012.6 |
| 20260904044921 | 73 | 207 | 0.0 | 0.0 | 0.05 | 0.01 | 0.01 | 99 | 1012.7 |
| 20260904044417 | 73 | 209 | 0.0 | 0.0 | 0.00 | 0.00 | 0.00 | 99 | 1012.3 |
| 20260904043913 | 73 | 206 | 0.0 | 0.0 | 0.00 | 0.00 | 0.00 | 99 | 1012.3 |
| 20260904043409 | 73 | 206 | 0.0 | 0.0 | 0.00 | 0.00 | 0.00 | 99 | 1012.2 |
| 20260904042904 | 73 | 205 | 0.0 | 0.0 | 0.00 | 0.00 | 0.00 | 99 | 1012.1 |
| 20260904042401 | 73 | 205 | 0.0 | 0.0 | 0.00 | 0.00 | 0.00 | 99 | 1012.4 |
| 20260904041855 | 73 | 205 | 0.0 | 0.0 | 0.00 | 0.00 | 0.00 | 99 | 1012.5 |
| 20260904041351 | 73 | 203 | 0.0 | 0.0 | 0.00 | 0.00 | 0.00 | 99 | 1012.7 |
| 20260904040848 | 73 | 205 | 0.0 | 0.0 | 0.00 | 0.00 | 0.00 | 99 | 1012.6 |
| 20260904040342 | 73 | 205 | 0.0 | 0.0 | 0.00 | 0.00 | 0.00 | 99 | 1012.5 |
| 20260904035838 | 73 | 203 | 0.0 | 0.0 | 0.00 | 0.35 | 0.35 | 99 | 1012.4 |
| 20260904035334 | 73 | 205 | 0.0 | 0.0 | 0.00 | 0.35 | 0.35 | 99 | 1012.5 |
| 20260904034833 | 73 | 205 | 0.0 | 0.0 | 0.00 | 0.35 | 0.35 | 99 | 1012.7 |
| 20260904034328 | 73 | 203 | 0.0 | 0.0 | 0.00 | 0.35 | 0.35 | 99 | 1012.4 |
| 20260904033824 | 73 | 203 | 0.0 | 0.0 | 0.00 | 0.35 | 0.35 | 99 | 1012.4 |
| 20260904033321 | 73 | 204 | 0.0 | 0.0 | 0.00 | 0.35 | 0.35 | 99 | 1012.5 |
| 20260904032817 | 73 | 205 | 0.0 | 0.0 | 0.00 | 0.35 | 0.35 | 99 | 1012.2 |
| 20260904032316 | 73 | 204 | 0.0 | 0.0 | 0.00 | 0.35 | 0.35 | 99 | 1012.4 |
| 20260904031811 | 73 | 199 | 0.0 | 0.0 | 0.00 | 0.35 | 0.35 | 99 | 1012.6 |
| 20260904031306 | 73 | 199 | 0.0 | 0.0 | 0.00 | 0.35 | 0.35 | 99 | 1012.6 |
| 20260904030802 | 73 | 200 | 0.0 | 0.0 | 0.00 | 0.35 | 0.35 | 99 | 1012.5 |
| 20260904030257 | 73 | 199 | 0.0 | 0.0 | 0.00 | 0.35 | 0.35 | 99 | 1012.6 |
| 20260904025753 | 73 | 204 | 0.0 | 0.0 | 0.00 | 0.35 | 0.35 | 99 | 1013.0 |
| 20260904025248 | 73 | 214 | 0.0 | 0.0 | 0.00 | 0.35 | 0.35 | 99 | 1013.0 |
| 20260904024743 | 73 | 203 | 0.0 | 0.0 | 0.00 | 0.35 | 0.35 | 99 | 1012.9 |
| 20260904024239 | 73 | 201 | 0.0 | 0.0 | 0.00 | 0.35 | 0.35 | 99 | 1013.1 |
| 20260904023735 | 73 | 214 | 0.0 | 0.0 | 0.00 | 0.35 | 0.35 | 99 | 1013.1 |
| 20260904023231 | 73 | 205 | 0.0 | 0.0 | 0.00 | 0.35 | 0.35 | 99 | 1013.0 |
| 20260904022731 | 73 | 205 | 0.0 | 0.0 | 0.00 | 0.35 | 0.35 | 99 | 1013.1 |
| 20260904022228 | 73 | 204 | 0.0 | 0.0 | 0.00 | 0.35 | 0.35 | 99 | 1013.1 |
| 20260904021723 | 73 | 200 | 0.0 | 0.0 | 0.00 | 0.35 | 0.35 | 99 | 1013.2 |
| 20260904021218 | 73 | 202 | 0.0 | 0.0 | 0.00 | 0.35 | 0.35 | 99 | 1013.2 |
| 20260904020714 | 73 | 202 | 0.0 | 0.0 | 0.00 | 0.35 | 0.35 | 99 | 1013.5 |
| 20260904020213 | 73 | 205 | 0.0 | 0.0 | 0.00 | 0.35 | 0.35 | 99 | 1013.6 |
| 20260904015712 | 73 | 205 | 0.0 | 0.0 | 0.00 | 0.35 | 0.35 | 99 | 1013.5 |
| 20260904015207 | 73 | 201 | 0.0 | 0.0 | 0.00 | 0.35 | 0.35 | 99 | 1013.5 |
| 20260904014705 | 73 | 205 | 0.0 | 0.0 | 0.00 | 0.35 | 0.35 | 99 | 1013.7 |
| 20260904014200 | 73 | 200 | 0.0 | 0.0 | 0.00 | 0.35 | 0.35 | 99 | 1013.7 |
| 20260904013657 | 73 | 201 | 0.0 | 0.0 | 0.00 | 0.35 | 0.35 | 99 | 1013.3 |
| 20260904013153 | 73 | 201 | 0.0 | 0.0 | 0.00 | 0.35 | 0.35 | 99 | 1013.2 |
| 20260904012649 | 73 | 200 | 0.0 | 0.0 | 0.00 | 0.35 | 0.35 | 99 | 1013.5 |
| 20260904012147 | 73 | 195 | 0.0 | 0.0 | 0.00 | 0.35 | 0.35 | 99 | 1013.2 |
| 20260904011646 | 73 | 205 | 0.0 | 0.0 | 0.00 | 0.35 | 0.35 | 99 | 1013.3 |
| 20260904011143 | 73 | 205 | 0.0 | 0.0 | 0.00 | 0.35 | 0.35 | 99 | 1013.4 |
| 20260904010638 | 73 | 205 | 0.0 | 0.0 | 0.00 | 0.35 | 0.35 | 99 | 1013.5 |
| 20260904010134 | 73 | 205 | 0.0 | 0.0 | 0.00 | 0.35 | 0.35 | 99 | 1013.3 |
| 20260904005629 | 73 | 203 | 0.0 | 0.0 | 0.00 | 0.35 | 0.35 | 99 | 1013.2 |
| 20260904005125 | 74 | 200 | 0.0 | 0.0 | 0.00 | 0.35 | 0.35 | 99 | 1013.1 |
| 20260904004620 | 74 | 200 | 0.0 | 0.0 | 0.00 | 0.35 | 0.35 | 99 | 1013.3 |
| 20260904004120 | 74 | 200 | 0.0 | 0.0 | 0.00 | 0.35 | 0.35 | 99 | 1013.2 |
| 20260904003616 | 74 | 201 | 0.0 | 0.0 | 0.00 | 0.35 | 0.35 | 99 | 1013.3 |
| 20260904003112 | 74 | 201 | 0.0 | 0.0 | 0.00 | 0.35 | 0.35 | 99 | 1013.3 |
| 20260904002608 | 74 | 204 | 0.0 | 0.0 | 0.00 | 0.35 | 0.35 | 99 | 1013.3 |
| 20260904002102 | 74 | 204 | 0.0 | 0.0 | 0.00 | 0.35 | 0.35 | 99 | 1013.2 |
| 20260904001557 | 75 | 200 | 0.0 | 0.0 | 0.00 | 0.35 | 0.35 | 98 | 1012.9 |
| 20260904001056 | 75 | 202 | 0.0 | 0.0 | 0.00 | 0.35 | 0.35 | 98 | 1013.2 |
| 20260904000551 | 75 | 201 | 0.0 | 0.0 | 0.00 | 0.35 | 0.35 | 98 | 1013.0 |
| 20260904000048 | 75 | 200 | 0.0 | 0.0 | 0.00 | 0.35 | 0.35 | 97 | 1012.8 |
| 20260903235547 | 75 | 203 | 0.0 | 0.0 | 0.00 | 0.35 | 0.35 | 97 | 1012.9 |
| 20260903235043 | 76 | 201 | 0.0 | 0.0 | 0.00 | 0.35 | 0.35 | 97 | 1012.9 |
| 20260903234538 | 76 | 201 | 0.0 | 0.0 | 0.00 | 0.35 | 0.35 | 96 | 1012.8 |
| 20260903234034 | 76 | 200 | 0.0 | 0.0 | 0.00 | 0.35 | 0.35 | 95 | 1013.0 |
| 20260903233530 | 76 | 200 | 0.0 | 0.0 | 0.00 | 0.35 | 0.35 | 95 | 1013.0 |
| 20260903233025 | 77 | 200 | 0.0 | 0.0 | 0.00 | 0.35 | 0.35 | 94 | 1012.8 |
| 20260903232521 | 77 | 200 | 0.0 | 0.0 | 0.00 | 0.35 | 0.35 | 94 | 1012.7 |
| 20260903232021 | 77 | 200 | 0.0 | 0.0 | 0.00 | 0.35 | 0.35 | 94 | 1012.6 |
| 20260903231515 | 77 | 202 | 0.0 | 0.0 | 0.00 | 0.35 | 0.35 | 93 | 1012.8 |
| 20260903231009 | 78 | 200 | 0.0 | 0.0 | 0.00 | 0.35 | 0.35 | 93 | 1012.6 |
| 20260903230506 | 78 | 203 | 0.0 | 0.0 | 0.00 | 0.35 | 0.35 | 91 | 1012.9 |
| 20260903230003 | 78 | 203 | 0.0 | 0.0 | 0.00 | 0.35 | 0.35 | 90 | 1012.8 |
| 20260903225457 | 78 | 203 | 0.0 | 0.0 | 0.00 | 0.35 | 0.35 | 89 | 1012.7 |
| 20260903224953 | 78 | 203 | 0.0 | 0.0 | 0.00 | 0.35 | 0.35 | 88 | 1012.7 |
| 20260903224449 | 79 | 203 | 0.0 | 0.0 | 0.00 | 0.35 | 0.35 | 88 | 1012.5 |
| 20260903223944 | 79 | 203 | 0.0 | 0.0 | 0.00 | 0.35 | 0.35 | 87 | 1012.7 |
| 20260903223444 | 80 | 200 | 0.0 | 0.0 | 0.00 | 0.35 | 0.35 | 87 | 1012.9 |
| 20260903222943 | 80 | 198 | 0.0 | 0.0 | 0.00 | 0.35 | 0.35 | 85 | 1012.9 |
| 20260903222438 | 80 | 200 | 0.0 | 0.0 | 0.00 | 0.35 | 0.35 | 86 | 1013.0 |
| 20260903221937 | 80 | 200 | 0.0 | 0.0 | 0.00 | 0.35 | 0.35 | 86 | 1013.0 |
| 20260903221432 | 81 | 204 | 0.0 | 0.0 | 0.00 | 0.35 | 0.35 | 85 | 1013.3 |
| 20260903220929 | 81 | 205 | 0.0 | 0.0 | 0.00 | 0.35 | 0.35 | 84 | 1013.1 |
| 20260903220424 | 81 | 205 | 0.0 | 1.0 | 0.00 | 0.35 | 0.35 | 84 | 1012.8 |
| 20260903215921 | 81 | 202 | 0.0 | 0.0 | 0.00 | 0.35 | 0.35 | 83 | 1013.0 |
| 20260903215419 | 81 | 210 | 0.0 | 0.0 | 0.00 | 0.35 | 0.35 | 84 | 1012.9 |
| 20260903214916 | 81 | 201 | 0.0 | 0.0 | 0.00 | 0.35 | 0.35 | 82 | 1012.8 |
| 20260903214413 | 81 | 202 | 0.0 | 0.0 | 0.00 | 0.35 | 0.35 | 84 | 1012.9 |
| 20260903213912 | 81 | 203 | 0.0 | 0.0 | 0.00 | 0.35 | 0.35 | 84 | 1013.0 |
| 20260903213408 | 81 | 206 | 0.0 | 0.0 | 0.00 | 0.35 | 0.35 | 83 | 1012.8 |
| 20260903212903 | 81 | 205 | 0.0 | 0.0 | 0.00 | 0.35 | 0.35 | 83 | 1012.9 |
| 20260903212359 | 81 | 203 | 0.0 | 0.0 | 0.00 | 0.35 | 0.35 | 83 | 1012.9 |
| 20260903211859 | 81 | 204 | 0.0 | 1.0 | 0.00 | 0.35 | 0.35 | 84 | 1012.8 |
| 20260903211355 | 81 | 200 | 0.0 | 0.0 | 0.00 | 0.35 | 0.35 | 82 | 1012.8 |
| 20260903210850 | 81 | 201 | 0.0 | 0.0 | 0.00 | 0.35 | 0.35 | 83 | 1012.8 |
| 20260903210344 | 81 | 203 | 0.0 | 0.0 | 0.00 | 0.35 | 0.35 | 82 | 1012.8 |
| 20260903205844 | 81 | 198 | 0.0 | 0.0 | 0.00 | 0.35 | 0.35 | 81 | 1012.8 |
| 20260903205344 | 82 | 195 | 0.0 | 0.0 | 0.00 | 0.35 | 0.35 | 82 | 1012.8 |
| 20260903204839 | 82 | 202 | 0.0 | 0.0 | 0.00 | 0.35 | 0.35 | 83 | 1013.0 |
| 20260903204335 | 82 | 203 | 0.0 | 0.0 | 0.00 | 0.35 | 0.35 | 83 | 1012.7 |
| 20260903203831 | 82 | 202 | 0.0 | 0.0 | 0.00 | 0.35 | 0.35 | 81 | 1012.6 |
| 20260903203327 | 81 | 213 | 0.0 | 0.0 | 0.00 | 0.35 | 0.35 | 79 | 1013.1 |
| 20260903202825 | 81 | 201 | 0.0 | 0.0 | 0.00 | 0.35 | 0.35 | 83 | 1013.0 |
| 20260903202322 | 81 | 201 | 0.0 | 0.0 | 0.00 | 0.35 | 0.35 | 83 | 1013.0 |
| 20260903201821 | 81 | 201 | 0.0 | 0.0 | 0.00 | 0.35 | 0.35 | 84 | 1013.0 |
| 20260903201317 | 81 | 201 | 0.0 | 0.0 | 0.00 | 0.35 | 0.35 | 83 | 1013.1 |
| 20260903200815 | 81 | 198 | 0.0 | 0.0 | 0.00 | 0.35 | 0.35 | 82 | 1013.3 |
| 20260903200311 | 81 | 203 | 1.0 | 1.0 | 0.00 | 0.35 | 0.35 | 82 | 1013.3 |
| 20260903195806 | 81 | 202 | 0.0 | 0.0 | 0.00 | 0.35 | 0.35 | 84 | 1013.3 |
| 20260903195306 | 81 | 206 | 0.0 | 0.0 | 0.00 | 0.35 | 0.35 | 84 | 1013.0 |
| 20260903194757 | 81 | 200 | 0.0 | 0.0 | 0.00 | 0.35 | 0.35 | 83 | 1013.0 |
| 20260903194253 | 81 | 201 | 0.0 | 1.0 | 0.00 | 0.35 | 0.35 | 80 | 1013.0 |
| 20260903193748 | 82 | 202 | 0.0 | 0.0 | 0.00 | 0.35 | 0.35 | 80 | 1013.3 |
| 20260903193243 | 82 | 202 | 0.0 | 0.0 | 0.00 | 0.35 | 0.35 | 79 | 1013.2 |
| 20260903192739 | 82 | 225 | 0.0 | 1.0 | 0.00 | 0.35 | 0.35 | 77 | 1013.4 |
| 20260903192235 | 82 | 206 | 0.0 | 0.0 | 0.00 | 0.35 | 0.35 | 76 | 1013.1 |
| 20260903191731 | 82 | 333 | 1.0 | 2.0 | 0.00 | 0.35 | 0.35 | 77 | 1013.2 |
| 20260903191226 | 81 | 208 | 0.0 | 0.0 | 0.00 | 0.35 | 0.35 | 80 | 1013.1 |
| 20260903190721 | 82 | 200 | 0.0 | 0.0 | 0.00 | 0.35 | 0.35 | 80 | 1013.4 |
| 20260903190220 | 81 | 200 | 0.0 | 0.0 | 0.00 | 0.35 | 0.35 | 80 | 1013.3 |
| 20260903185716 | 82 | 192 | 0.0 | 0.0 | 0.00 | 0.35 | 0.35 | 77 | 1013.5 |
| 20260903185216 | 82 | 199 | 0.0 | 0.0 | 0.00 | 0.35 | 0.35 | 76 | 1013.5 |
| 20260903184713 | 83 | 208 | 0.0 | 0.0 | 0.00 | 0.35 | 0.35 | 78 | 1013.7 |
| 20260903184209 | 83 | 205 | 0.0 | 0.0 | 0.00 | 0.35 | 0.35 | 75 | 1013.5 |
| 20260903183708 | 83 | 217 | 0.0 | 0.0 | 0.00 | 0.35 | 0.35 | 75 | 1013.7 |
| 20260903183202 | 83 | 200 | 1.0 | 1.0 | 0.00 | 0.35 | 0.35 | 73 | 1013.7 |
| 20260903182656 | 82 | 4 | 1.0 | 2.0 | 0.00 | 0.35 | 0.35 | 77 | 1013.7 |
| 20260903182152 | 83 | 6 | 2.0 | 2.0 | 0.00 | 0.35 | 0.35 | 75 | 1013.6 |
| 20260903181649 | 82 | 207 | 0.0 | 0.0 | 0.00 | 0.35 | 0.35 | 76 | 1013.8 |
| 20260903181144 | 82 | 214 | 0.0 | 0.0 | 0.00 | 0.35 | 0.35 | 79 | 1013.6 |
| 20260903180640 | 82 | 190 | 2.0 | 2.0 | 0.00 | 0.35 | 0.35 | 77 | 1013.7 |
| 20260903180139 | 82 | 193 | 0.0 | 1.0 | 0.00 | 0.35 | 0.35 | 79 | 1013.8 |
| 20260903175633 | 81 | 216 | 0.0 | 0.0 | 0.00 | 0.35 | 0.35 | 78 | 1014.0 |
| 20260903175133 | 80 | 228 | 0.0 | 0.0 | 0.00 | 0.35 | 0.35 | 80 | 1013.9 |
| 20260903174627 | 80 | 216 | 0.0 | 0.0 | 0.00 | 0.35 | 0.35 | 81 | 1013.9 |
| 20260903174122 | 80 | 202 | 0.0 | 1.0 | 0.00 | 0.35 | 0.35 | 79 | 1014.1 |
| 20260903173617 | 80 | 210 | 0.0 | 0.0 | 0.00 | 0.35 | 0.35 | 79 | 1014.1 |
| 20260903173113 | 81 | 201 | 1.0 | 1.0 | 0.00 | 0.35 | 0.35 | 79 | 1014.3 |
| 20260903172608 | 80 | 210 | 0.0 | 0.0 | 0.00 | 0.35 | 0.35 | 79 | 1014.3 |
| 20260903172103 | 81 | 339 | 3.0 | 5.0 | 0.00 | 0.35 | 0.35 | 77 | 1014.4 |
| 20260903171603 | 81 | 185 | 1.0 | 1.0 | 0.00 | 0.35 | 0.35 | 78 | 1014.4 |
| 20260903171059 | 81 | 199 | 0.0 | 1.0 | 0.00 | 0.35 | 0.35 | 78 | 1014.5 |
| 20260903170557 | 81 | 213 | 2.0 | 2.0 | 0.00 | 0.35 | 0.35 | 78 | 1014.4 |
| 20260903170053 | 81 | 351 | 1.0 | 1.0 | 0.00 | 0.35 | 0.35 | 79 | 1014.4 |
| 20260903165550 | 80 | 260 | 1.0 | 1.0 | 0.00 | 0.35 | 0.35 | 79 | 1014.4 |
| 20260903165047 | 79 | 209 | 0.0 | 0.0 | 0.00 | 0.35 | 0.35 | 81 | 1014.4 |
| 20260903164546 | 80 | 206 | 1.0 | 1.0 | 0.00 | 0.35 | 0.35 | 82 | 1014.5 |
| 20260903164037 | 79 | 214 | 0.0 | 0.0 | 0.00 | 0.35 | 0.35 | 84 | 1014.4 |
| 20260903163537 | 79 | 0 | 2.0 | 2.0 | 0.00 | 0.35 | 0.35 | 84 | 1014.7 |
| 20260903163033 | 78 | 209 | 0.0 | 1.0 | 0.00 | 0.35 | 0.35 | 86 | 1014.4 |
| 20260903162529 | 77 | 194 | 1.0 | 1.0 | 0.00 | 0.35 | 0.35 | 86 | 1014.5 |
| 20260903162025 | 77 | 202 | 0.0 | 0.0 | 0.00 | 0.35 | 0.35 | 88 | 1014.9 |
| 20260903161520 | 76 | 207 | 0.0 | 0.0 | 0.00 | 0.35 | 0.35 | 89 | 1014.9 |
| 20260903161016 | 77 | 136 | 0.0 | 0.0 | 0.00 | 0.35 | 0.35 | 88 | 1014.8 |
| 20260903160515 | 77 | 209 | 0.0 | 0.0 | 0.00 | 0.35 | 0.35 | 88 | 1014.9 |
| 20260903160009 | 77 | 199 | 0.0 | 0.0 | 0.00 | 0.35 | 0.35 | 88 | 1015.0 |
| 20260903155509 | 77 | 159 | 1.0 | 1.0 | 0.00 | 0.35 | 0.35 | 88 | 1015.1 |
| 20260903155004 | 77 | 201 | 0.0 | 0.0 | 0.00 | 0.35 | 0.35 | 89 | 1015.2 |
| 20260903154500 | 76 | 209 | 0.0 | 1.0 | 0.00 | 0.35 | 0.35 | 90 | 1015.5 |
| 20260903153955 | 75 | 201 | 0.0 | 0.0 | 0.00 | 0.35 | 0.35 | 91 | 1015.3 |
| 20260903153451 | 75 | 210 | 0.0 | 1.0 | 0.00 | 0.35 | 0.35 | 92 | 1015.2 |
| 20260903152947 | 75 | 207 | 0.0 | 0.0 | 0.00 | 0.35 | 0.35 | 92 | 1015.2 |
| 20260903152443 | 74 | 164 | 0.0 | 0.0 | 0.00 | 0.35 | 0.35 | 93 | 1015.2 |
| 20260903151939 | 74 | 194 | 2.0 | 2.0 | 0.00 | 0.35 | 0.35 | 93 | 1015.3 |
| 20260903151439 | 74 | 146 | 0.0 | 1.0 | 0.00 | 0.35 | 0.35 | 94 | 1015.3 |
| 20260903150934 | 73 | 210 | 0.0 | 0.0 | 0.00 | 0.35 | 0.35 | 94 | 1015.4 |
| 20260903150434 | 73 | 204 | 2.0 | 2.0 | 0.00 | 0.35 | 0.35 | 95 | 1015.4 |
| 20260903145934 | 73 | 204 | 0.0 | 0.0 | 0.00 | 0.35 | 0.35 | 98 | 1015.6 |
| 20260903145429 | 72 | 209 | 0.0 | 0.0 | 0.00 | 0.35 | 0.35 | 98 | 1015.3 |
| 20260903144924 | 71 | 205 | 0.0 | 0.0 | 0.00 | 0.35 | 0.35 | 99 | 1015.3 |
| 20260903144423 | 71 | 201 | 0.0 | 0.0 | 0.00 | 0.35 | 0.35 | 99 | 1015.4 |
| 20260903143919 | 71 | 198 | 1.0 | 1.0 | 0.00 | 0.35 | 0.35 | 99 | 1015.4 |
| 20260903143416 | 70 | 200 | 1.0 | 1.0 | 0.00 | 0.35 | 0.35 | 99 | 1015.6 |
| 20260903142911 | 70 | 207 | 0.0 | 0.0 | 0.00 | 0.35 | 0.35 | 99 | 1015.5 |
| 20260903142407 | 70 | 199 | 0.0 | 1.0 | 0.00 | 0.35 | 0.35 | 99 | 1015.6 |
| 20260903141903 | 70 | 210 | 0.0 | 0.0 | 0.00 | 0.35 | 0.35 | 99 | 1015.6 |
| 20260903141358 | 70 | 191 | 0.0 | 0.0 | 0.00 | 0.35 | 0.35 | 99 | 1015.5 |
| 20260903140854 | 70 | 201 | 0.0 | 0.0 | 0.00 | 0.35 | 0.35 | 99 | 1015.6 |
| 20260903140349 | 70 | 212 | 0.0 | 0.0 | 0.00 | 0.35 | 0.35 | 99 | 1015.4 |
| 20260903135844 | 69 | 212 | 0.0 | 0.0 | 0.00 | 0.35 | 0.35 | 99 | 1015.5 |
| 20260903135339 | 69 | 212 | 0.0 | 0.0 | 0.00 | 0.35 | 0.35 | 99 | 1015.3 |
| 20260903134838 | 69 | 213 | 0.0 | 0.0 | 0.00 | 0.35 | 0.35 | 99 | 1015.6 |
| 20260903134333 | 69 | 207 | 0.0 | 1.0 | 0.00 | 0.35 | 0.35 | 99 | 1015.6 |
| 20260903133831 | 69 | 208 | 0.0 | 0.0 | 0.00 | 0.35 | 0.35 | 99 | 1015.4 |
| 20260903133328 | 69 | 206 | 0.0 | 0.0 | 0.00 | 0.35 | 0.35 | 99 | 1015.6 |
| 20260903132828 | 69 | 198 | 0.0 | 0.0 | 0.00 | 0.35 | 0.35 | 99 | 1015.4 |
| 20260903132324 | 69 | 207 | 0.0 | 0.0 | 0.00 | 0.35 | 0.35 | 99 | 1015.5 |
| 20260903131818 | 70 | 207 | 0.0 | 0.0 | 0.00 | 0.35 | 0.35 | 99 | 1015.4 |
| 20260903131318 | 69 | 174 | 1.0 | 1.0 | 0.00 | 0.35 | 0.35 | 99 | 1015.5 |
| 20260903130813 | 70 | 212 | 0.0 | 0.0 | 0.00 | 0.35 | 0.35 | 99 | 1015.4 |
| 20260903130313 | 69 | 213 | 0.0 | 0.0 | 0.00 | 0.35 | 0.35 | 99 | 1015.5 |
| 20260903125811 | 69 | 209 | 0.0 | 0.0 | 0.00 | 0.35 | 0.35 | 99 | 1015.3 |
| 20260903125307 | 69 | 233 | 0.0 | 1.0 | 0.00 | 0.35 | 0.35 | 99 | 1015.5 |
| 20260903124806 | 69 | 191 | 0.0 | 0.0 | 0.00 | 0.35 | 0.35 | 99 | 1015.8 |
| 20260903124301 | 69 | 221 | 0.0 | 0.0 | 0.00 | 0.35 | 0.35 | 99 | 1015.8 |
| 20260903123759 | 69 | 206 | 0.0 | 0.0 | 0.00 | 0.35 | 0.35 | 99 | 1015.5 |
| 20260903123259 | 69 | 213 | 0.0 | 0.0 | 0.00 | 0.35 | 0.35 | 99 | 1015.9 |
| 20260903122758 | 69 | 204 | 0.0 | 0.0 | 0.00 | 0.35 | 0.35 | 99 | 1015.8 |
| 20260903122253 | 69 | 210 | 0.0 | 0.0 | 0.00 | 0.35 | 0.35 | 99 | 1016.1 |
| 20260903121751 | 69 | 207 | 0.0 | 0.0 | 0.00 | 0.35 | 0.35 | 99 | 1015.7 |
| 20260903121247 | 69 | 207 | 0.0 | 0.0 | 0.00 | 0.35 | 0.35 | 99 | 1015.7 |
| 20260903120742 | 69 | 209 | 0.0 | 0.0 | 0.00 | 0.35 | 0.35 | 99 | 1015.8 |
| 20260903120236 | 68 | 210 | 0.0 | 0.0 | 0.00 | 0.35 | 0.35 | 99 | 1016.1 |
| 20260903115735 | 68 | 210 | 0.0 | 0.0 | 0.00 | 0.35 | 0.35 | 99 | 1016.2 |
| 20260903115230 | 68 | 203 | 0.0 | 0.0 | 0.00 | 0.35 | 0.35 | 99 | 1016.3 |
| 20260903114724 | 68 | 209 | 0.0 | 0.0 | 0.00 | 0.35 | 0.35 | 99 | 1016.3 |
| 20260903114220 | 68 | 198 | 0.0 | 0.0 | 0.00 | 0.35 | 0.35 | 99 | 1016.0 |
| 20260903113715 | 68 | 204 | 0.0 | 0.0 | 0.00 | 0.35 | 0.35 | 99 | 1015.9 |
| 20260903113211 | 68 | 202 | 0.0 | 0.0 | 0.00 | 0.35 | 0.35 | 99 | 1015.9 |
| 20260903112707 | 68 | 203 | 0.0 | 0.0 | 0.00 | 0.35 | 0.35 | 99 | 1016.2 |
| 20260903112202 | 68 | 207 | 0.0 | 0.0 | 0.00 | 0.35 | 0.35 | 99 | 1015.9 |
| 20260903111700 | 68 | 207 | 0.0 | 0.0 | 0.00 | 0.35 | 0.35 | 99 | 1016.0 |
| 20260903111156 | 68 | 207 | 0.0 | 0.0 | 0.00 | 0.35 | 0.35 | 99 | 1015.9 |
| 20260903110653 | 68 | 205 | 0.0 | 0.0 | 0.00 | 0.35 | 0.35 | 99 | 1016.0 |
| 20260903110148 | 68 | 205 | 0.0 | 0.0 | 0.00 | 0.35 | 0.35 | 99 | 1016.0 |
| 20260903105642 | 68 | 206 | 0.0 | 0.0 | 0.00 | 0.35 | 0.35 | 99 | 1016.0 |
| 20260903105137 | 67 | 205 | 0.0 | 0.0 | 0.00 | 0.35 | 0.35 | 99 | 1015.9 |
| 20260903104637 | 68 | 205 | 0.0 | 0.0 | 0.00 | 0.35 | 0.35 | 99 | 1016.1 |
| 20260903104133 | 68 | 211 | 0.0 | 0.0 | 0.00 | 0.35 | 0.35 | 99 | 1015.9 |
| 20260903103628 | 68 | 205 | 0.0 | 0.0 | 0.00 | 0.35 | 0.35 | 99 | 1015.6 |
| 20260903103125 | 68 | 201 | 0.0 | 0.0 | 0.00 | 0.35 | 0.35 | 99 | 1015.8 |
| 20260903102619 | 68 | 205 | 0.0 | 0.0 | 0.00 | 0.35 | 0.35 | 99 | 1016.3 |
| 20260903102118 | 68 | 205 | 0.0 | 0.0 | 0.00 | 0.35 | 0.35 | 99 | 1016.2 |
| 20260903101618 | 68 | 205 | 0.0 | 0.0 | 0.00 | 0.35 | 0.35 | 99 | 1016.1 |
| 20260903101114 | 68 | 205 | 0.0 | 0.0 | 0.00 | 0.35 | 0.35 | 99 | 1016.1 |
| 20260903100609 | 68 | 199 | 0.0 | 0.0 | 0.00 | 0.35 | 0.35 | 99 | 1015.9 |
| 20260903100108 | 68 | 202 | 0.0 | 0.0 | 0.00 | 0.35 | 0.35 | 99 | 1015.6 |
| 20260903095606 | 68 | 197 | 0.0 | 0.0 | 0.00 | 0.35 | 0.35 | 99 | 1015.8 |
| 20260903095105 | 68 | 207 | 0.0 | 0.0 | 0.00 | 0.35 | 0.35 | 99 | 1015.5 |
| 20260903094606 | 68 | 208 | 0.0 | 0.0 | 0.00 | 0.35 | 0.35 | 99 | 1015.7 |
| 20260903094101 | 68 | 197 | 1.0 | 2.0 | 0.00 | 0.35 | 0.35 | 99 | 1015.7 |
| 20260903093556 | 68 | 198 | 0.0 | 0.0 | 0.00 | 0.35 | 0.35 | 99 | 1015.4 |
| 20260903093052 | 68 | 207 | 0.0 | 0.0 | 0.00 | 0.35 | 0.35 | 99 | 1015.3 |
| 20260903092551 | 68 | 186 | 0.0 | 0.0 | 0.00 | 0.35 | 0.35 | 99 | 1015.8 |
| 20260903092046 | 68 | 192 | 0.0 | 1.0 | 0.00 | 0.35 | 0.35 | 99 | 1015.7 |
| 20260903091544 | 68 | 165 | 0.0 | 1.0 | 0.00 | 0.35 | 0.35 | 99 | 1015.6 |
| 20260903091039 | 68 | 202 | 0.0 | 0.0 | 0.00 | 0.35 | 0.35 | 99 | 1015.8 |
| 20260903090535 | 68 | 205 | 0.0 | 0.0 | 0.00 | 0.35 | 0.35 | 99 | 1015.8 |
| 20260903090033 | 67 | 194 | 0.0 | 0.0 | 0.00 | 0.35 | 0.35 | 99 | 1015.7 |
| 20260903085532 | 67 | 213 | 0.0 | 0.0 | 0.00 | 0.35 | 0.35 | 99 | 1016.0 |
| 20260903085028 | 67 | 204 | 0.0 | 0.0 | 0.00 | 0.35 | 0.35 | 99 | 1015.3 |
| 20260903084526 | 67 | 205 | 0.0 | 0.0 | 0.00 | 0.35 | 0.35 | 99 | 1015.5 |
| 20260903084020 | 67 | 193 | 0.0 | 1.0 | 0.00 | 0.35 | 0.35 | 99 | 1015.5 |
| 20260903083516 | 67 | 205 | 0.0 | 0.0 | 0.00 | 0.35 | 0.35 | 99 | 1015.6 |
| 20260903083010 | 67 | 214 | 0.0 | 0.0 | 0.00 | 0.35 | 0.35 | 99 | 1015.8 |
| 20260903082504 | 67 | 188 | 0.0 | 0.0 | 0.00 | 0.35 | 0.35 | 99 | 1015.8 |
| 20260903082000 | 67 | 198 | 0.0 | 0.0 | 0.00 | 0.35 | 0.35 | 99 | 1016.0 |
| 20260903081455 | 67 | 208 | 0.0 | 0.0 | 0.00 | 0.35 | 0.35 | 99 | 1016.3 |
| 20260903080951 | 67 | 206 | 0.0 | 0.0 | 0.00 | 0.35 | 0.35 | 99 | 1016.4 |
| 20260903080447 | 67 | 206 | 0.0 | 0.0 | 0.00 | 0.35 | 0.35 | 99 | 1016.5 |
| 20260903075943 | 67 | 206 | 0.0 | 0.0 | 0.00 | 0.35 | 0.35 | 99 | 1016.4 |
| 20260903075439 | 67 | 206 | 0.0 | 0.0 | 0.00 | 0.35 | 0.35 | 99 | 1016.5 |
| 20260903074933 | 67 | 206 | 0.0 | 0.0 | 0.00 | 0.35 | 0.35 | 99 | 1016.5 |
| 20260903074432 | 67 | 199 | 0.0 | 0.0 | 0.00 | 0.35 | 0.35 | 99 | 1016.6 |
| 20260903073928 | 67 | 204 | 0.0 | 0.0 | 0.00 | 0.35 | 0.35 | 99 | 1016.4 |
| 20260903073423 | 67 | 200 | 0.0 | 0.0 | 0.00 | 0.35 | 0.35 | 99 | 1016.2 |
| 20260903072918 | 67 | 206 | 0.0 | 0.0 | 0.00 | 0.35 | 0.35 | 99 | 1016.5 |
| 20260903072414 | 67 | 210 | 0.0 | 0.0 | 0.00 | 0.35 | 0.35 | 99 | 1016.3 |
| 20260903071911 | 67 | 208 | 0.0 | 0.0 | 0.00 | 0.35 | 0.35 | 99 | 1016.4 |
| 20260903071407 | 67 | 198 | 0.0 | 0.0 | 0.07 | 0.35 | 0.35 | 99 | 1016.3 |
| 20260903070903 | 67 | 194 | 0.0 | 0.0 | 0.07 | 0.35 | 0.35 | 99 | 1016.0 |
| 20260903070357 | 67 | 207 | 0.0 | 0.0 | 0.00 | 0.34 | 0.34 | 99 | 1016.4 |
| 20260903065852 | 67 | 200 | 0.0 | 0.0 | 0.00 | 0.34 | 0.34 | 99 | 1016.4 |